KLM49W EHEH-EHRD

Flight info

Callsign KLM49W
Flight time 0h 21m
Altitude 6000
Route INKET
Aircraft B738/M-SDE2E3FGHIRWXY/LB1

Departure

Time 2026-05-04 04:00
Airport Eindhoven Airport (EHEH)

Arrival

Time 2026-05-04 04:22
Airport Rotterdam The Hague Airport (EHRD)
Time Latitude Longitude Altitude Speed Heading
2026-05-04 03:47 51.45822 5.39000 82 ft 0 kts 122°
2026-05-04 03:53 51.45823 5.38996 82 ft 1 kts 122°
2026-05-04 03:53 51.45832 5.38976 82 ft 3 kts 122°
2026-05-04 03:53 51.45839 5.38956 82 ft 0 kts 122°
2026-05-04 03:54 51.45848 5.38999 82 ft 8 kts 38°
2026-05-04 03:54 51.45883 5.39040 82 ft 5 kts 34°
2026-05-04 03:54 51.45913 5.39055 82 ft 4 kts 329°
2026-05-04 03:55 51.45913 5.39054 82 ft 0 kts 324°
2026-05-04 03:56 51.45937 5.39027 82 ft 14 kts 320°
2026-05-04 03:56 51.45998 5.38925 82 ft 6 kts 308°
2026-05-04 03:56 51.46011 5.38897 82 ft 2 kts 302°
2026-05-04 03:57 51.46013 5.38890 82 ft 0 kts 302°
2026-05-04 03:57 51.46022 5.38868 82 ft 7 kts 302°
2026-05-04 03:57 51.46075 5.38752 82 ft 7 kts 307°
2026-05-04 03:57 51.46081 5.38739 82 ft 5 kts 307°
2026-05-04 03:58 51.46031 5.38594 82 ft 0 kts 213°
2026-05-04 03:59 51.46022 5.38584 82 ft 6 kts 213°
2026-05-04 03:59 51.45959 5.38511 82 ft 21 kts 219°
2026-05-04 03:59 51.45770 5.38300 82 ft 59 kts 214°
2026-05-04 04:00 51.45236 5.37704 82 ft 126 kts 216°
2026-05-04 04:00 51.44367 5.36719 236 ft 171 kts 215°
2026-05-04 04:00 51.43344 5.35581 836 ft 190 kts 215°
2026-05-04 04:00 51.42205 5.34264 1458 ft 203 kts 218°
2026-05-04 04:01 51.41219 5.32681 2388 ft 209 kts 232°
2026-05-04 04:01 51.40680 5.30469 2817 ft 221 kts 262°
2026-05-04 04:01 51.40885 5.27990 3032 ft 230 kts 291°
2026-05-04 04:01 51.41811 5.25912 3047 ft 232 kts 318°
2026-05-04 04:02 51.43161 5.24539 3060 ft 229 kts 335°
2026-05-04 04:02 51.44568 5.23501 3043 ft 216 kts 335°
2026-05-04 04:02 51.45889 5.22529 3015 ft 206 kts 335°
2026-05-04 04:02 51.47158 5.21595 3006 ft 201 kts 335°
2026-05-04 04:03 51.48414 5.20668 3010 ft 198 kts 335°
2026-05-04 04:03 51.49659 5.19748 3018 ft 197 kts 335°
2026-05-04 04:03 51.50915 5.18881 3026 ft 197 kts 338°
2026-05-04 04:03 51.52197 5.18059 3034 ft 199 kts 338°
2026-05-04 04:04 51.53475 5.17245 3023 ft 195 kts 338°
2026-05-04 04:04 51.54723 5.16448 3029 ft 190 kts 338°
2026-05-04 04:04 51.55949 5.15663 3196 ft 192 kts 338°
2026-05-04 04:04 51.57180 5.14873 3914 ft 186 kts 338°
2026-05-04 04:05 51.58372 5.14108 4706 ft 183 kts 338°
2026-05-04 04:05 51.59560 5.13345 5365 ft 192 kts 336°
2026-05-04 04:05 51.60904 5.12481 5430 ft 220 kts 336°
2026-05-04 04:05 51.62284 5.11330 5234 ft 227 kts 324°
2026-05-04 04:06 51.63502 5.09695 5105 ft 231 kts 316°
2026-05-04 04:06 51.64622 5.07837 4998 ft 230 kts 313°
2026-05-04 04:06 51.65684 5.05926 4994 ft 227 kts 311°
2026-05-04 04:06 51.66696 5.04080 4996 ft 226 kts 311°
2026-05-04 04:07 51.67751 5.02156 4997 ft 226 kts 311°
2026-05-04 04:07 51.68795 5.00254 4997 ft 226 kts 311°
2026-05-04 04:07 51.69838 4.98356 4997 ft 226 kts 311°
2026-05-04 04:07 51.70895 4.96433 4997 ft 226 kts 311°
2026-05-04 04:08 51.71914 4.94578 4997 ft 226 kts 311°
2026-05-04 04:08 51.72971 4.92656 4997 ft 226 kts 311°
2026-05-04 04:08 51.74015 4.90756 4997 ft 226 kts 311°
2026-05-04 04:08 51.75062 4.88851 4997 ft 226 kts 311°
2026-05-04 04:09 51.76104 4.86955 4997 ft 226 kts 311°
2026-05-04 04:09 51.77150 4.85052 4997 ft 226 kts 311°
2026-05-04 04:09 51.78178 4.83181 5001 ft 227 kts 311°
2026-05-04 04:09 51.79226 4.81270 4987 ft 226 kts 311°
2026-05-04 04:10 51.80263 4.79382 4998 ft 226 kts 311°
2026-05-04 04:10 51.81317 4.77426 4995 ft 226 kts 309°
2026-05-04 04:10 51.82224 4.75347 4998 ft 226 kts 303°
2026-05-04 04:10 51.83057 4.73189 4997 ft 226 kts 302°
2026-05-04 04:11 51.83874 4.71010 4997 ft 226 kts 302°
2026-05-04 04:11 51.84690 4.68838 4997 ft 226 kts 302°
2026-05-04 04:11 51.85514 4.66652 5002 ft 232 kts 302°
2026-05-04 04:11 51.86375 4.64375 5009 ft 241 kts 302°
2026-05-04 04:12 51.87249 4.62068 5007 ft 246 kts 302°
2026-05-04 04:12 51.88149 4.59695 5003 ft 248 kts 302°
2026-05-04 04:12 51.88903 4.57201 4958 ft 249 kts 284°
2026-05-04 04:12 51.88783 4.54419 4979 ft 252 kts 254°
2026-05-04 04:13 51.87988 4.51872 5011 ft 255 kts 239°
2026-05-04 04:13 51.86946 4.49545 5008 ft 256 kts 234°
2026-05-04 04:13 51.85817 4.47309 5001 ft 256 kts 232°
2026-05-04 04:13 51.84671 4.45090 4996 ft 256 kts 232°
2026-05-04 04:14 51.83573 4.42951 4997 ft 256 kts 232°
2026-05-04 04:14 51.82782 4.41403 4997 ft 256 kts 233°
2026-05-04 04:14 51.81269 4.38434 4997 ft 256 kts 233°
2026-05-04 04:14 51.80518 4.36956 4977 ft 257 kts 233°
2026-05-04 04:15 51.79379 4.34711 4817 ft 260 kts 233°
2026-05-04 04:15 51.78240 4.32464 4664 ft 255 kts 232°
2026-05-04 04:15 51.77132 4.30277 4517 ft 248 kts 232°
2026-05-04 04:15 51.76059 4.28157 4377 ft 242 kts 232°
2026-05-04 04:16 51.75242 4.24960 4167 ft 232 kts 272°
2026-05-04 04:16 51.75504 4.23270 4037 ft 231 kts 296°
2026-05-04 04:16 51.76595 4.21406 3660 ft 232 kts 327°
2026-05-04 04:16 51.78043 4.20362 3391 ft 231 kts 342°
2026-05-04 04:17 51.79626 4.19808 3193 ft 230 kts 354°
2026-05-04 04:17 51.81188 4.19851 3051 ft 224 kts
2026-05-04 04:17 51.82707 4.20154 2943 ft 216 kts
2026-05-04 04:17 51.84178 4.20493 2831 ft 208 kts
2026-05-04 04:18 51.85552 4.20906 2697 ft 196 kts 18°
2026-05-04 04:18 51.86630 4.22151 2574 ft 189 kts 46°
2026-05-04 04:18 51.87467 4.23762 2489 ft 185 kts 51°
2026-05-04 04:18 51.88223 4.25436 2399 ft 184 kts 55°
2026-05-04 04:19 51.88930 4.27155 2256 ft 183 kts 57°
2026-05-04 04:19 51.89622 4.28871 2036 ft 182 kts 57°
2026-05-04 04:19 51.90316 4.30598 1776 ft 182 kts 57°
2026-05-04 04:19 51.90987 4.32272 1525 ft 171 kts 57°
2026-05-04 04:20 51.91610 4.33828 1317 ft 160 kts 57°
2026-05-04 04:20 51.92203 4.35309 1099 ft 153 kts 57°
2026-05-04 04:20 51.92771 4.36728 896 ft 147 kts 57°
2026-05-04 04:20 51.93319 4.38098 717 ft 144 kts 57°
2026-05-04 04:21 51.93862 4.39446 518 ft 145 kts 56°
2026-05-04 04:21 51.94426 4.40835 320 ft 147 kts 57°
2026-05-04 04:21 51.94967 4.42189 109 ft 141 kts 57°
2026-05-04 04:21 51.95476 4.43469 -3 ft 127 kts 57°
2026-05-04 04:22 51.95842 4.44408 -7 ft 53 kts 58°
2026-05-04 04:22 51.95972 4.44761 -7 ft 22 kts 86°
2026-05-04 04:22 51.96062 4.44982 -7 ft 36 kts 57°
2026-05-04 04:22 51.96166 4.45274 -7 ft 0 kts 95°
2026-05-04 04:23 51.96148 4.45334 -7 ft 0 kts 129°
2026-05-04 04:23 51.96147 4.45334 -7 ft 0 kts 129°
2026-05-04 04:23 51.96126 4.45370 -7 ft 12 kts 144°
2026-05-04 04:24 51.96015 4.45347 -7 ft 18 kts 236°
2026-05-04 04:24 51.95974 4.45241 -7 ft 0 kts 238°